Location: Coll
(42.4728°N, 0.7714°E)
Time: 12:18:52
(UTC+00:00)

Meteor 1-16 Rocket - Pass Details

Date: 23 October 2020
Orbit: 790 x 907 km, 81.2° (Epoch: 01 December)

Event Time Altitude Azimuth Distance (km) Brightness Sun altitude
Rises 04:57:15 0° 344° (NNW) 3,310 7.1 -15.9°
Reaches altitude 10° 04:59:43 10° 338° (NNW) 2,368 6.3 -15.4°
Maximum altitude 05:04:45 46° 267° (W) 1,058 4.3 -14.5°
Drops below altitude 10° 05:09:47 10° 195° (SSW) 2,352 6.4 -13.5°
Sets 05:12:13 0° 189° (S) 3,284 7.2 -13.1°
